Regional Weather Roundup
Issued by NWS Sioux Falls, SD

Home | Current Version | Previous Version | Graphics & Text | Print | Product List | Glossary Off
Versions: 1 2 3 4 5 6 7 8 9 10 11 12 13 14 15 16 17 18 19 20 21 22 23 24 25 26 27 28 29 30 31 32 33 34 35 36 37 38 39 40 41 42 43 44 45 46 47 48 49 50

000
ASUS43 KFSD 172010
RWRFSD

WEATHER ROUNDUP FOR SE SOUTH DAKOTA/SW MINNESOTA/NW IOWA
NATIONAL WEATHER SERVICE SIOUX FALLS SD
300 PM CDT THU AUG 17 2017

NOTE: "FAIR" INDICATES FEW OR NO CLOUDS BELOW 12,000 FEET WITH NO
SIGNIFICANT WEATHER AND OR OBSTRUCTIONS TO VISIBILITY.


SDZ038>040-050-052>070-172100-
SOUTHEAST SOUTH DAKOTA

CITY           SKY/WX    TMP DP  RH WIND       PRES   REMARKS
BROOKINGS      SUNNY     75  62  64 NW14      29.89S
CHAMBERLAIN    SUNNY     83  60  45 SE6       29.90F
HURON          SUNNY     80  58  46 NW3       29.89F
MADISON        FAIR      75  61  60 NW14      29.91S
MITCHELL       SUNNY     81  59  47 CALM      29.90F
SIOUX FALLS    MOSUNNY   79  60  52 NW14      29.89S
WINNER         FAIR      87  57  35 S12       29.90F
YANKTON        SUNNY     79  58  48 W10       29.91F
$$

MNZ071-072-080-081-089-090-097-098-172100-
SOUTHWEST MINNESOTA

CITY           SKY/WX    TMP DP  RH WIND       PRES   REMARKS
FAIRMONT       CLOUDY    71  63  75 NW20      29.83R
JACKSON        CLOUDY    72  63  73 NW13G18   29.85S
LUVERNE        SUNNY     75  59  57 NW12G21   29.88S
MARSHALL       MOSUNNY   73  65  75 NW10      29.85S
MONTEVIDEO     PTSUNNY   77  77 100 N14G20    29.84R
PIPESTONE      SUNNY     77  61  57 NW14G25   29.88S
REDWOOD FALLS  CLOUDY    70  62  76 NW15      29.82S
TRACY          MOSUNNY   73  66  79 NW14G20   29.85F
WINDOM         SUNNY     72  63  73 NW15      29.85R
WORTHINGTON    MOSUNNY   76  63  64 NW17G25   29.87R
$$

IAZ001>003-012>014-020>022-031-032-NEZ013-014-SDZ071-172100-
NORTHWEST IOWA

CITY           SKY/WX    TMP DP  RH WIND       PRES   REMARKS
CHEROKEE       SUNNY     79  60  51 NW13G22   29.87S
DENISON        SUNNY     79  61  53 NW15G22   29.91R
ESTHERVILLE    PTSUNNY   71  64  78 NW13G18   29.83S
LE MARS        SUNNY     79  59  50 NW12G21   29.89S
ORANGE CITY    SUNNY     79  64  61 NW13G18   29.88F
SHELDON        SUNNY     77  63  61 NW14      29.86S
SIOUX CITY     SUNNY     80  62  54 NW12      29.89S
SPENCER        PTSUNNY   79  62  56 NW20      29.85F
STORM LAKE     MOSUNNY   75  63  64 NW14      29.88S
$$

ABBREVIATIONS USED IN REMARKS
   TC - TEMPERATURE IN CELSIUS
  WCI - WIND CHILL INDEX
   HX - HEAT INDEX
  VSB - VISIBILITY





USA.gov is the U.S. government's official web portal to all federal, state and local government web resources and services.